sat.trackr.live / text

‹ back to catalog

STARLINK-34973

NORAD 65250 · 2025-179R

PAYLOAD ACTIVE UNKNOWN

§ Identity

Operator
Country
US
Launch date
2025-08-18
Launch site
AFWTR
Launch vehicle
Mass (kg)
RCS (m²)

Purposes: comms

External: N2YO · Heavens-Above · Gunter

§ Orbital elements

Epoch: 2026-05-25T03:01:14.774016Z

Period
95.64 min
Inclination
97.4470°
Eccentricity
0.0002324
Mean motion
15.05657557 rev/d
Perigee alt
547.9 km
Apogee alt
551.1 km
Semi-major
6,927.6 km
B*
3.1562e-4
RAAN
188.0023°
Arg perigee
133.5075°
Mean anomaly
226.6345°
Rev number
4,331

§ Raw data

STARLINK-349731 65250U 25179R   26145.12586544  .00004499  00000+0  31562-3 0  99902 65250  97.4470 188.0023 0002324 133.5075 226.6345 15.05657557 43313

JSON: /api/v1/satellites/65250 · /tle

For live sub-satellite position, see the globe view (requires WebGL).

§ Visibility from observer

Set your observer location to see the next 7 days of passes ≥ 10°. The values pass through the URL so the page stays shareable.

No JS? Fill the form by hand. The geolocation button needs JavaScript.